Index of /20260503/WXO-DD/model_rdps/10km/12/065
Name Last modified Size Description
Parent Directory -
20260503T12Z_MSC_RDPS_AbsoluteVorticity_IsbL-0250_RLatLon0.09_PT065H.grib2 2026-05-03 15:12 605K
20260503T12Z_MSC_RDPS_AbsoluteVorticity_IsbL-0500_RLatLon0.09_PT065H.grib2 2026-05-03 15:12 698K
20260503T12Z_MSC_RDPS_AbsoluteVorticity_IsbL-0700_RLatLon0.09_PT065H.grib2 2026-05-03 15:12 609K
20260503T12Z_MSC_RDPS_AbsoluteVorticity_IsbL-0850_RLatLon0.09_PT065H.grib2 2026-05-03 15:12 782K
20260503T12Z_MSC_RDPS_AirTemp_AGL-120m_RLatLon0.09_PT065H.grib2 2026-05-03 15:12 369K
20260503T12Z_MSC_RDPS_AirTemp_AGL-2m_RLatLon0.09_PT065H.grib2 2026-05-03 15:12 620K
20260503T12Z_MSC_RDPS_AirTemp_AGL-40m_RLatLon0.09_PT065H.grib2 2026-05-03 15:12 382K
20260503T12Z_MSC_RDPS_AirTemp_AGL-80m_RLatLon0.09_PT065H.grib2 2026-05-03 15:12 374K
20260503T12Z_MSC_RDPS_AirTemp_IsbL-0001_RLatLon0.09_PT065H.grib2 2026-05-03 15:12 297K
20260503T12Z_MSC_RDPS_AirTemp_IsbL-0005_RLatLon0.09_PT065H.grib2 2026-05-03 15:12 288K
20260503T12Z_MSC_RDPS_AirTemp_IsbL-0010_RLatLon0.09_PT065H.grib2 2026-05-03 15:12 297K
20260503T12Z_MSC_RDPS_AirTemp_IsbL-0020_RLatLon0.09_PT065H.grib2 2026-05-03 15:12 314K
20260503T12Z_MSC_RDPS_AirTemp_IsbL-0030_RLatLon0.09_PT065H.grib2 2026-05-03 15:12 333K
20260503T12Z_MSC_RDPS_AirTemp_IsbL-0050_RLatLon0.09_PT065H.grib2 2026-05-03 15:12 314K
20260503T12Z_MSC_RDPS_AirTemp_IsbL-0100_RLatLon0.09_PT065H.grib2 2026-05-03 15:12 424K
20260503T12Z_MSC_RDPS_AirTemp_IsbL-0150_RLatLon0.09_PT065H.grib2 2026-05-03 15:12 417K
20260503T12Z_MSC_RDPS_AirTemp_IsbL-0175_RLatLon0.09_PT065H.grib2 2026-05-03 15:12 410K
20260503T12Z_MSC_RDPS_AirTemp_IsbL-0200_RLatLon0.09_PT065H.grib2 2026-05-03 15:12 412K
20260503T12Z_MSC_RDPS_AirTemp_IsbL-0225_RLatLon0.09_PT065H.grib2 2026-05-03 15:12 412K
20260503T12Z_MSC_RDPS_AirTemp_IsbL-0250_RLatLon0.09_PT065H.grib2 2026-05-03 15:12 418K
20260503T12Z_MSC_RDPS_AirTemp_IsbL-0275_RLatLon0.09_PT065H.grib2 2026-05-03 15:12 400K
20260503T12Z_MSC_RDPS_AirTemp_IsbL-0300_RLatLon0.09_PT065H.grib2 2026-05-03 15:12 409K
20260503T12Z_MSC_RDPS_AirTemp_IsbL-0350_RLatLon0.09_PT065H.grib2 2026-05-03 15:12 426K
20260503T12Z_MSC_RDPS_AirTemp_IsbL-0400_RLatLon0.09_PT065H.grib2 2026-05-03 15:12 431K
20260503T12Z_MSC_RDPS_AirTemp_IsbL-0450_RLatLon0.09_PT065H.grib2 2026-05-03 15:12 438K
20260503T12Z_MSC_RDPS_AirTemp_IsbL-0500_RLatLon0.09_PT065H.grib2 2026-05-03 15:12 445K
20260503T12Z_MSC_RDPS_AirTemp_IsbL-0550_RLatLon0.09_PT065H.grib2 2026-05-03 15:12 461K
20260503T12Z_MSC_RDPS_AirTemp_IsbL-0600_RLatLon0.09_PT065H.grib2 2026-05-03 15:12 442K
20260503T12Z_MSC_RDPS_AirTemp_IsbL-0650_RLatLon0.09_PT065H.grib2 2026-05-03 15:12 457K
20260503T12Z_MSC_RDPS_AirTemp_IsbL-0700_RLatLon0.09_PT065H.grib2 2026-05-03 15:12 374K
20260503T12Z_MSC_RDPS_AirTemp_IsbL-0750_RLatLon0.09_PT065H.grib2 2026-05-03 15:12 404K
20260503T12Z_MSC_RDPS_AirTemp_IsbL-0800_RLatLon0.09_PT065H.grib2 2026-05-03 15:12 449K
20260503T12Z_MSC_RDPS_AirTemp_IsbL-0850_RLatLon0.09_PT065H.grib2 2026-05-03 15:12 506K
20260503T12Z_MSC_RDPS_AirTemp_IsbL-0875_RLatLon0.09_PT065H.grib2 2026-05-03 15:12 528K
20260503T12Z_MSC_RDPS_AirTemp_IsbL-0900_RLatLon0.09_PT065H.grib2 2026-05-03 15:12 533K
20260503T12Z_MSC_RDPS_AirTemp_IsbL-0925_RLatLon0.09_PT065H.grib2 2026-05-03 15:12 526K
20260503T12Z_MSC_RDPS_AirTemp_IsbL-0950_RLatLon0.09_PT065H.grib2 2026-05-03 15:12 518K
20260503T12Z_MSC_RDPS_AirTemp_IsbL-0970_RLatLon0.09_PT065H.grib2 2026-05-03 15:12 508K
20260503T12Z_MSC_RDPS_AirTemp_IsbL-0985_RLatLon0.09_PT065H.grib2 2026-05-03 15:12 495K
20260503T12Z_MSC_RDPS_AirTemp_IsbL-1000_RLatLon0.09_PT065H.grib2 2026-05-03 15:12 478K
20260503T12Z_MSC_RDPS_AirTemp_IsbL-1015_RLatLon0.09_PT065H.grib2 2026-05-03 15:12 483K
20260503T12Z_MSC_RDPS_Albedo_Sfc_RLatLon0.09_PT065H.grib2 2026-05-03 15:12 155K
20260503T12Z_MSC_RDPS_CAPE_Sfc_RLatLon0.09_PT065H.grib2 2026-05-03 15:12 1.7M
20260503T12Z_MSC_RDPS_CIN_Sfc_RLatLon0.09_PT065H.grib2 2026-05-03 15:12 1.2M
20260503T12Z_MSC_RDPS_CloudWater_EAtm_RLatLon0.09_PT065H.grib2 2026-05-03 15:12 220K
20260503T12Z_MSC_RDPS_ConvectivePrecip-Accum_Sfc_RLatLon0.09_PT065H.grib2 2026-05-03 15:12 1.2M
20260503T12Z_MSC_RDPS_DewPointDepression_AGL-2m_RLatLon0.09_PT065H.grib2 2026-05-03 15:12 397K
20260503T12Z_MSC_RDPS_DewPointDepression_IsbL-0001_RLatLon0.09_PT065H.grib2 2026-05-03 15:12 193
20260503T12Z_MSC_RDPS_DewPointDepression_IsbL-0005_RLatLon0.09_PT065H.grib2 2026-05-03 15:12 193
20260503T12Z_MSC_RDPS_DewPointDepression_IsbL-0010_RLatLon0.09_PT065H.grib2 2026-05-03 15:12 193
20260503T12Z_MSC_RDPS_DewPointDepression_IsbL-0020_RLatLon0.09_PT065H.grib2 2026-05-03 15:12 193
20260503T12Z_MSC_RDPS_DewPointDepression_IsbL-0030_RLatLon0.09_PT065H.grib2 2026-05-03 15:12 193
20260503T12Z_MSC_RDPS_DewPointDepression_IsbL-0050_RLatLon0.09_PT065H.grib2 2026-05-03 15:12 77K
20260503T12Z_MSC_RDPS_DewPointDepression_IsbL-0100_RLatLon0.09_PT065H.grib2 2026-05-03 15:12 111K
20260503T12Z_MSC_RDPS_DewPointDepression_IsbL-0150_RLatLon0.09_PT065H.grib2 2026-05-03 15:12 143K
20260503T12Z_MSC_RDPS_DewPointDepression_IsbL-0175_RLatLon0.09_PT065H.grib2 2026-05-03 15:12 185K
20260503T12Z_MSC_RDPS_DewPointDepression_IsbL-0200_RLatLon0.09_PT065H.grib2 2026-05-03 15:12 219K
20260503T12Z_MSC_RDPS_DewPointDepression_IsbL-0225_RLatLon0.09_PT065H.grib2 2026-05-03 15:12 253K
20260503T12Z_MSC_RDPS_DewPointDepression_IsbL-0250_RLatLon0.09_PT065H.grib2 2026-05-03 15:12 299K
20260503T12Z_MSC_RDPS_DewPointDepression_IsbL-0275_RLatLon0.09_PT065H.grib2 2026-05-03 15:12 310K
20260503T12Z_MSC_RDPS_DewPointDepression_IsbL-0300_RLatLon0.09_PT065H.grib2 2026-05-03 15:12 328K
20260503T12Z_MSC_RDPS_DewPointDepression_IsbL-0350_RLatLon0.09_PT065H.grib2 2026-05-03 15:12 333K
20260503T12Z_MSC_RDPS_DewPointDepression_IsbL-0400_RLatLon0.09_PT065H.grib2 2026-05-03 15:12 343K
20260503T12Z_MSC_RDPS_DewPointDepression_IsbL-0450_RLatLon0.09_PT065H.grib2 2026-05-03 15:12 347K
20260503T12Z_MSC_RDPS_DewPointDepression_IsbL-0500_RLatLon0.09_PT065H.grib2 2026-05-03 15:12 348K
20260503T12Z_MSC_RDPS_DewPointDepression_IsbL-0550_RLatLon0.09_PT065H.grib2 2026-05-03 15:12 357K
20260503T12Z_MSC_RDPS_DewPointDepression_IsbL-0600_RLatLon0.09_PT065H.grib2 2026-05-03 15:12 368K
20260503T12Z_MSC_RDPS_DewPointDepression_IsbL-0650_RLatLon0.09_PT065H.grib2 2026-05-03 15:12 371K
20260503T12Z_MSC_RDPS_DewPointDepression_IsbL-0700_RLatLon0.09_PT065H.grib2 2026-05-03 15:12 380K
20260503T12Z_MSC_RDPS_DewPointDepression_IsbL-0750_RLatLon0.09_PT065H.grib2 2026-05-03 15:12 399K
20260503T12Z_MSC_RDPS_DewPointDepression_IsbL-0800_RLatLon0.09_PT065H.grib2 2026-05-03 15:12 430K
20260503T12Z_MSC_RDPS_DewPointDepression_IsbL-0850_RLatLon0.09_PT065H.grib2 2026-05-03 15:12 475K
20260503T12Z_MSC_RDPS_DewPointDepression_IsbL-0875_RLatLon0.09_PT065H.grib2 2026-05-03 15:12 477K
20260503T12Z_MSC_RDPS_DewPointDepression_IsbL-0900_RLatLon0.09_PT065H.grib2 2026-05-03 15:12 463K
20260503T12Z_MSC_RDPS_DewPointDepression_IsbL-0925_RLatLon0.09_PT065H.grib2 2026-05-03 15:12 448K
20260503T12Z_MSC_RDPS_DewPointDepression_IsbL-0950_RLatLon0.09_PT065H.grib2 2026-05-03 15:12 437K
20260503T12Z_MSC_RDPS_DewPointDepression_IsbL-0970_RLatLon0.09_PT065H.grib2 2026-05-03 15:12 429K
20260503T12Z_MSC_RDPS_DewPointDepression_IsbL-0985_RLatLon0.09_PT065H.grib2 2026-05-03 15:12 425K
20260503T12Z_MSC_RDPS_DewPointDepression_IsbL-1000_RLatLon0.09_PT065H.grib2 2026-05-03 15:12 420K
20260503T12Z_MSC_RDPS_DewPointDepression_IsbL-1015_RLatLon0.09_PT065H.grib2 2026-05-03 15:12 411K
20260503T12Z_MSC_RDPS_DewPoint_AGL-2m_RLatLon0.09_PT065H.grib2 2026-05-03 15:12 299K
20260503T12Z_MSC_RDPS_DownwardLongwaveRadiationFlux-Accum_Sfc_RLatLon0.09_PT065H.grib2 2026-05-03 15:12 416K
20260503T12Z_MSC_RDPS_DownwardShortwaveRadiationFlux-Accum_NTAtm_RLatLon0.09_PT065H.grib2 2026-05-03 15:12 108K
20260503T12Z_MSC_RDPS_DownwardShortwaveRadiationFlux-Accum_Sfc_RLatLon0.09_PT065H.grib2 2026-05-03 15:12 622K
20260503T12Z_MSC_RDPS_FreezingRain-Accum1h_Sfc_RLatLon0.09_PT065H.grib2 2026-05-03 15:12 30K
20260503T12Z_MSC_RDPS_FreezingRain-Accum_Sfc_RLatLon0.09_PT065H.grib2 2026-05-03 15:12 187K
20260503T12Z_MSC_RDPS_GeopotentialHeight_IsbL-0001_RLatLon0.09_PT065H.grib2 2026-05-03 15:12 237K
20260503T12Z_MSC_RDPS_GeopotentialHeight_IsbL-0005_RLatLon0.09_PT065H.grib2 2026-05-03 15:12 336K
20260503T12Z_MSC_RDPS_GeopotentialHeight_IsbL-0010_RLatLon0.09_PT065H.grib2 2026-05-03 15:12 337K
20260503T12Z_MSC_RDPS_GeopotentialHeight_IsbL-0020_RLatLon0.09_PT065H.grib2 2026-05-03 15:12 305K
20260503T12Z_MSC_RDPS_GeopotentialHeight_IsbL-0030_RLatLon0.09_PT065H.grib2 2026-05-03 15:12 403K
20260503T12Z_MSC_RDPS_GeopotentialHeight_IsbL-0050_RLatLon0.09_PT065H.grib2 2026-05-03 15:12 308K
20260503T12Z_MSC_RDPS_GeopotentialHeight_IsbL-0100_RLatLon0.09_PT065H.grib2 2026-05-03 15:12 285K
20260503T12Z_MSC_RDPS_GeopotentialHeight_IsbL-0150_RLatLon0.09_PT065H.grib2 2026-05-03 15:12 227K
20260503T12Z_MSC_RDPS_GeopotentialHeight_IsbL-0175_RLatLon0.09_PT065H.grib2 2026-05-03 15:12 230K
20260503T12Z_MSC_RDPS_GeopotentialHeight_IsbL-0200_RLatLon0.09_PT065H.grib2 2026-05-03 15:12 234K
20260503T12Z_MSC_RDPS_GeopotentialHeight_IsbL-0225_RLatLon0.09_PT065H.grib2 2026-05-03 15:12 236K
20260503T12Z_MSC_RDPS_GeopotentialHeight_IsbL-0250_RLatLon0.09_PT065H.grib2 2026-05-03 15:12 236K
20260503T12Z_MSC_RDPS_GeopotentialHeight_IsbL-0275_RLatLon0.09_PT065H.grib2 2026-05-03 15:12 235K
20260503T12Z_MSC_RDPS_GeopotentialHeight_IsbL-0300_RLatLon0.09_PT065H.grib2 2026-05-03 15:12 235K
20260503T12Z_MSC_RDPS_GeopotentialHeight_IsbL-0350_RLatLon0.09_PT065H.grib2 2026-05-03 15:12 231K
20260503T12Z_MSC_RDPS_GeopotentialHeight_IsbL-0400_RLatLon0.09_PT065H.grib2 2026-05-03 15:12 228K
20260503T12Z_MSC_RDPS_GeopotentialHeight_IsbL-0450_RLatLon0.09_PT065H.grib2 2026-05-03 15:12 297K
20260503T12Z_MSC_RDPS_GeopotentialHeight_IsbL-0500_RLatLon0.09_PT065H.grib2 2026-05-03 15:12 293K
20260503T12Z_MSC_RDPS_GeopotentialHeight_IsbL-0550_RLatLon0.09_PT065H.grib2 2026-05-03 15:12 289K
20260503T12Z_MSC_RDPS_GeopotentialHeight_IsbL-0600_RLatLon0.09_PT065H.grib2 2026-05-03 15:12 286K
20260503T12Z_MSC_RDPS_GeopotentialHeight_IsbL-0650_RLatLon0.09_PT065H.grib2 2026-05-03 15:12 256K
20260503T12Z_MSC_RDPS_GeopotentialHeight_IsbL-0700_RLatLon0.09_PT065H.grib2 2026-05-03 15:12 338K
20260503T12Z_MSC_RDPS_GeopotentialHeight_IsbL-0750_RLatLon0.09_PT065H.grib2 2026-05-03 15:12 341K
20260503T12Z_MSC_RDPS_GeopotentialHeight_IsbL-0800_RLatLon0.09_PT065H.grib2 2026-05-03 15:12 349K
20260503T12Z_MSC_RDPS_GeopotentialHeight_IsbL-0850_RLatLon0.09_PT065H.grib2 2026-05-03 15:12 362K
20260503T12Z_MSC_RDPS_GeopotentialHeight_IsbL-0875_RLatLon0.09_PT065H.grib2 2026-05-03 15:12 365K
20260503T12Z_MSC_RDPS_GeopotentialHeight_IsbL-0900_RLatLon0.09_PT065H.grib2 2026-05-03 15:12 367K
20260503T12Z_MSC_RDPS_GeopotentialHeight_IsbL-0925_RLatLon0.09_PT065H.grib2 2026-05-03 15:12 370K
20260503T12Z_MSC_RDPS_GeopotentialHeight_IsbL-0950_RLatLon0.09_PT065H.grib2 2026-05-03 15:12 372K
20260503T12Z_MSC_RDPS_GeopotentialHeight_IsbL-0970_RLatLon0.09_PT065H.grib2 2026-05-03 15:12 286K
20260503T12Z_MSC_RDPS_GeopotentialHeight_IsbL-0985_RLatLon0.09_PT065H.grib2 2026-05-03 15:12 292K
20260503T12Z_MSC_RDPS_GeopotentialHeight_IsbL-1000_RLatLon0.09_PT065H.grib2 2026-05-03 15:12 299K
20260503T12Z_MSC_RDPS_GeopotentialHeight_IsbL-1015_RLatLon0.09_PT065H.grib2 2026-05-03 15:12 309K
20260503T12Z_MSC_RDPS_Humidex_Sfc_RLatLon0.09_PT065H.grib2 2026-05-03 15:12 2.4M
20260503T12Z_MSC_RDPS_IcePellets-Accum1h_Sfc_RLatLon0.09_PT065H.grib2 2026-05-03 15:12 7.4K
20260503T12Z_MSC_RDPS_IcePellets-Accum_Sfc_RLatLon0.09_PT065H.grib2 2026-05-03 15:12 45K
20260503T12Z_MSC_RDPS_KIndex_Sfc_RLatLon0.09_PT065H.grib2 2026-05-03 15:12 2.5M
20260503T12Z_MSC_RDPS_LatentHeatNetFlux_Sfc_RLatLon0.09_PT065H.grib2 2026-05-03 15:12 322K
20260503T12Z_MSC_RDPS_LiftedIndex-MU-VT_IsbL-0500_RLatLon0.09_PT065H.grib2 2026-05-03 15:12 2.4M
20260503T12Z_MSC_RDPS_NetLongwaveRadiationFlux-Accum_Sfc_RLatLon0.09_PT065H.grib2 2026-05-03 15:12 599K
20260503T12Z_MSC_RDPS_NetShortwaveRadiationFlux-Accum_Sfc_RLatLon0.09_PT065H.grib2 2026-05-03 15:12 621K
20260503T12Z_MSC_RDPS_PlanetaryBoundaryLayerHeight_Sfc_RLatLon0.09_PT065H.grib2 2026-05-03 15:12 1.1M
20260503T12Z_MSC_RDPS_Precip-Accum1h_Sfc_RLatLon0.09_PT065H.grib2 2026-05-03 15:12 1.3M
20260503T12Z_MSC_RDPS_Precip-Accum_Sfc_RLatLon0.09_PT065H.grib2 2026-05-03 15:12 2.2M
20260503T12Z_MSC_RDPS_PrecipRate_Sfc_RLatLon0.09_PT065H.grib2 2026-05-03 15:12 181K
20260503T12Z_MSC_RDPS_PrecipType-Instant_Sfc_RLatLon0.09_PT065H.grib2 2026-05-03 15:12 604K
20260503T12Z_MSC_RDPS_Pressure-Trend3h_Sfc_RLatLon0.09_PT065H.grib2 2026-05-03 15:12 1.2M
20260503T12Z_MSC_RDPS_Pressure_MSL_RLatLon0.09_PT065H.grib2 2026-05-03 15:12 324K
20260503T12Z_MSC_RDPS_Pressure_PVU-1.5_RLatLon0.09_PT065H.grib2 2026-05-03 15:12 2.5M
20260503T12Z_MSC_RDPS_Pressure_PVU-1_RLatLon0.09_PT065H.grib2 2026-05-03 15:12 2.4M
20260503T12Z_MSC_RDPS_Pressure_PVU-2_RLatLon0.09_PT065H.grib2 2026-05-03 15:12 2.4M
20260503T12Z_MSC_RDPS_Pressure_Sfc_RLatLon0.09_PT065H.grib2 2026-05-03 15:12 497K
20260503T12Z_MSC_RDPS_RadiativeTemp_Sfc_RLatLon0.09_PT065H.grib2 2026-05-03 15:12 296K
20260503T12Z_MSC_RDPS_Rain-Accum1h_Sfc_RLatLon0.09_PT065H.grib2 2026-05-03 15:12 627K
20260503T12Z_MSC_RDPS_Rain-Accum_Sfc_RLatLon0.09_PT065H.grib2 2026-05-03 15:12 1.8M
20260503T12Z_MSC_RDPS_RelativeHumidity_AGL-2m_RLatLon0.09_PT065H.grib2 2026-05-03 15:12 1.0M
20260503T12Z_MSC_RDPS_RelativeHumidity_IsbL-0010_RLatLon0.09_PT065H.grib2 2026-05-03 15:12 683K
20260503T12Z_MSC_RDPS_RelativeHumidity_IsbL-0020_RLatLon0.09_PT065H.grib2 2026-05-03 15:12 651K
20260503T12Z_MSC_RDPS_RelativeHumidity_IsbL-0030_RLatLon0.09_PT065H.grib2 2026-05-03 15:12 635K
20260503T12Z_MSC_RDPS_RelativeHumidity_IsbL-0050_RLatLon0.09_PT065H.grib2 2026-05-03 15:12 358K
20260503T12Z_MSC_RDPS_RelativeHumidity_IsbL-0100_RLatLon0.09_PT065H.grib2 2026-05-03 15:12 269K
20260503T12Z_MSC_RDPS_RelativeHumidity_IsbL-0150_RLatLon0.09_PT065H.grib2 2026-05-03 15:12 416K
20260503T12Z_MSC_RDPS_RelativeHumidity_IsbL-0175_RLatLon0.09_PT065H.grib2 2026-05-03 15:12 483K
20260503T12Z_MSC_RDPS_RelativeHumidity_IsbL-0200_RLatLon0.09_PT065H.grib2 2026-05-03 15:12 556K
20260503T12Z_MSC_RDPS_RelativeHumidity_IsbL-0225_RLatLon0.09_PT065H.grib2 2026-05-03 15:12 615K
20260503T12Z_MSC_RDPS_RelativeHumidity_IsbL-0250_RLatLon0.09_PT065H.grib2 2026-05-03 15:12 683K
20260503T12Z_MSC_RDPS_RelativeHumidity_IsbL-0275_RLatLon0.09_PT065H.grib2 2026-05-03 15:12 711K
20260503T12Z_MSC_RDPS_RelativeHumidity_IsbL-0300_RLatLon0.09_PT065H.grib2 2026-05-03 15:12 756K
20260503T12Z_MSC_RDPS_RelativeHumidity_IsbL-0350_RLatLon0.09_PT065H.grib2 2026-05-03 15:12 778K
20260503T12Z_MSC_RDPS_RelativeHumidity_IsbL-0400_RLatLon0.09_PT065H.grib2 2026-05-03 15:12 790K
20260503T12Z_MSC_RDPS_RelativeHumidity_IsbL-0450_RLatLon0.09_PT065H.grib2 2026-05-03 15:12 796K
20260503T12Z_MSC_RDPS_RelativeHumidity_IsbL-0500_RLatLon0.09_PT065H.grib2 2026-05-03 15:12 796K
20260503T12Z_MSC_RDPS_RelativeHumidity_IsbL-0550_RLatLon0.09_PT065H.grib2 2026-05-03 15:12 809K
20260503T12Z_MSC_RDPS_RelativeHumidity_IsbL-0600_RLatLon0.09_PT065H.grib2 2026-05-03 15:12 826K
20260503T12Z_MSC_RDPS_RelativeHumidity_IsbL-0650_RLatLon0.09_PT065H.grib2 2026-05-03 15:12 849K
20260503T12Z_MSC_RDPS_RelativeHumidity_IsbL-0700_RLatLon0.09_PT065H.grib2 2026-05-03 15:12 860K
20260503T12Z_MSC_RDPS_RelativeHumidity_IsbL-0750_RLatLon0.09_PT065H.grib2 2026-05-03 15:12 896K
20260503T12Z_MSC_RDPS_RelativeHumidity_IsbL-0800_RLatLon0.09_PT065H.grib2 2026-05-03 15:12 967K
20260503T12Z_MSC_RDPS_RelativeHumidity_IsbL-0850_RLatLon0.09_PT065H.grib2 2026-05-03 15:12 1.0M
20260503T12Z_MSC_RDPS_RelativeHumidity_IsbL-0875_RLatLon0.09_PT065H.grib2 2026-05-03 15:12 1.1M
20260503T12Z_MSC_RDPS_RelativeHumidity_IsbL-0900_RLatLon0.09_PT065H.grib2 2026-05-03 15:12 1.1M
20260503T12Z_MSC_RDPS_RelativeHumidity_IsbL-0925_RLatLon0.09_PT065H.grib2 2026-05-03 15:12 1.1M
20260503T12Z_MSC_RDPS_RelativeHumidity_IsbL-0950_RLatLon0.09_PT065H.grib2 2026-05-03 15:12 1.1M
20260503T12Z_MSC_RDPS_RelativeHumidity_IsbL-0970_RLatLon0.09_PT065H.grib2 2026-05-03 15:12 1.0M
20260503T12Z_MSC_RDPS_RelativeHumidity_IsbL-0985_RLatLon0.09_PT065H.grib2 2026-05-03 15:12 1.0M
20260503T12Z_MSC_RDPS_RelativeHumidity_IsbL-1000_RLatLon0.09_PT065H.grib2 2026-05-03 15:12 1.0M
20260503T12Z_MSC_RDPS_RelativeHumidity_IsbL-1015_RLatLon0.09_PT065H.grib2 2026-05-03 15:12 1.0M
20260503T12Z_MSC_RDPS_Runoff-Accum_Sfc_RLatLon0.09_PT065H.grib2 2026-05-03 15:12 64K
20260503T12Z_MSC_RDPS_SWEATIndex_Sfc_RLatLon0.09_PT065H.grib2 2026-05-03 15:12 2.4M
20260503T12Z_MSC_RDPS_SeeingIndex_EAtm_RLatLon0.09_PT065H.grib2 2026-05-03 15:12 1.0M
20260503T12Z_MSC_RDPS_SensibleHeatNetFlux_Sfc_RLatLon0.09_PT065H.grib2 2026-05-03 15:12 295K
20260503T12Z_MSC_RDPS_ShowalterIndex_IsbL-0500_RLatLon0.09_PT065H.grib2 2026-05-03 15:12 2.6M
20260503T12Z_MSC_RDPS_SkyTransparencyIndex_EAtm_RLatLon0.09_PT065H.grib2 2026-05-03 15:12 695K
20260503T12Z_MSC_RDPS_Snow-Accum1h_Sfc_RLatLon0.09_PT065H.grib2 2026-05-03 15:12 462K
20260503T12Z_MSC_RDPS_Snow-Accum_Sfc_RLatLon0.09_PT065H.grib2 2026-05-03 15:12 778K
20260503T12Z_MSC_RDPS_SnowDensity_Sfc_RLatLon0.09_PT065H.grib2 2026-05-03 15:12 174K
20260503T12Z_MSC_RDPS_SnowDepth_Sfc_RLatLon0.09_PT065H.grib2 2026-05-03 15:12 652K
20260503T12Z_MSC_RDPS_SoilTemp_DBS-0to10cm_RLatLon0.09_PT065H.grib2 2026-05-03 15:12 246K
20260503T12Z_MSC_RDPS_SoilTemp_Sfc_RLatLon0.09_PT065H.grib2 2026-05-03 15:12 266K
20260503T12Z_MSC_RDPS_SoilVolumetricIceContent_Sfc_RLatLon0.09_PT065H.grib2 2026-05-03 15:12 152K
20260503T12Z_MSC_RDPS_SoilVolumetricWaterContent_DBS-0to10cm_RLatLon0.09_PT065H.grib2 2026-05-03 15:12 279K
20260503T12Z_MSC_RDPS_SoilVolumetricWaterContent_DBS-0to1cm_RLatLon0.09_PT065H.grib2 2026-05-03 15:12 342K
20260503T12Z_MSC_RDPS_SpecificHumidity_AGL-120m_RLatLon0.09_PT065H.grib2 2026-05-03 15:12 484K
20260503T12Z_MSC_RDPS_SpecificHumidity_AGL-2m_RLatLon0.09_PT065H.grib2 2026-05-03 15:12 648K
20260503T12Z_MSC_RDPS_SpecificHumidity_AGL-40m_RLatLon0.09_PT065H.grib2 2026-05-03 15:12 489K
20260503T12Z_MSC_RDPS_SpecificHumidity_AGL-80m_RLatLon0.09_PT065H.grib2 2026-05-03 15:12 485K
20260503T12Z_MSC_RDPS_SpecificHumidity_IsbL-0001_RLatLon0.09_PT065H.grib2 2026-05-03 15:12 365K
20260503T12Z_MSC_RDPS_SpecificHumidity_IsbL-0005_RLatLon0.09_PT065H.grib2 2026-05-03 15:12 368K
20260503T12Z_MSC_RDPS_SpecificHumidity_IsbL-0010_RLatLon0.09_PT065H.grib2 2026-05-03 15:12 396K
20260503T12Z_MSC_RDPS_SpecificHumidity_IsbL-0020_RLatLon0.09_PT065H.grib2 2026-05-03 15:12 377K
20260503T12Z_MSC_RDPS_SpecificHumidity_IsbL-0030_RLatLon0.09_PT065H.grib2 2026-05-03 15:12 368K
20260503T12Z_MSC_RDPS_SpecificHumidity_IsbL-0050_RLatLon0.09_PT065H.grib2 2026-05-03 15:12 477K
20260503T12Z_MSC_RDPS_SpecificHumidity_IsbL-0100_RLatLon0.09_PT065H.grib2 2026-05-03 15:12 413K
20260503T12Z_MSC_RDPS_SpecificHumidity_IsbL-0150_RLatLon0.09_PT065H.grib2 2026-05-03 15:12 456K
20260503T12Z_MSC_RDPS_SpecificHumidity_IsbL-0175_RLatLon0.09_PT065H.grib2 2026-05-03 15:12 445K
20260503T12Z_MSC_RDPS_SpecificHumidity_IsbL-0200_RLatLon0.09_PT065H.grib2 2026-05-03 15:12 457K
20260503T12Z_MSC_RDPS_SpecificHumidity_IsbL-0225_RLatLon0.09_PT065H.grib2 2026-05-03 15:12 452K
20260503T12Z_MSC_RDPS_SpecificHumidity_IsbL-0250_RLatLon0.09_PT065H.grib2 2026-05-03 15:12 559K
20260503T12Z_MSC_RDPS_SpecificHumidity_IsbL-0275_RLatLon0.09_PT065H.grib2 2026-05-03 15:12 478K
20260503T12Z_MSC_RDPS_SpecificHumidity_IsbL-0300_RLatLon0.09_PT065H.grib2 2026-05-03 15:12 578K
20260503T12Z_MSC_RDPS_SpecificHumidity_IsbL-0350_RLatLon0.09_PT065H.grib2 2026-05-03 15:12 547K
20260503T12Z_MSC_RDPS_SpecificHumidity_IsbL-0400_RLatLon0.09_PT065H.grib2 2026-05-03 15:12 527K
20260503T12Z_MSC_RDPS_SpecificHumidity_IsbL-0450_RLatLon0.09_PT065H.grib2 2026-05-03 15:12 576K
20260503T12Z_MSC_RDPS_SpecificHumidity_IsbL-0500_RLatLon0.09_PT065H.grib2 2026-05-03 15:12 506K
20260503T12Z_MSC_RDPS_SpecificHumidity_IsbL-0550_RLatLon0.09_PT065H.grib2 2026-05-03 15:12 576K
20260503T12Z_MSC_RDPS_SpecificHumidity_IsbL-0600_RLatLon0.09_PT065H.grib2 2026-05-03 15:12 627K
20260503T12Z_MSC_RDPS_SpecificHumidity_IsbL-0650_RLatLon0.09_PT065H.grib2 2026-05-03 15:12 542K
20260503T12Z_MSC_RDPS_SpecificHumidity_IsbL-0700_RLatLon0.09_PT065H.grib2 2026-05-03 15:12 582K
20260503T12Z_MSC_RDPS_SpecificHumidity_IsbL-0750_RLatLon0.09_PT065H.grib2 2026-05-03 15:12 632K
20260503T12Z_MSC_RDPS_SpecificHumidity_IsbL-0800_RLatLon0.09_PT065H.grib2 2026-05-03 15:12 712K
20260503T12Z_MSC_RDPS_SpecificHumidity_IsbL-0850_RLatLon0.09_PT065H.grib2 2026-05-03 15:12 799K
20260503T12Z_MSC_RDPS_SpecificHumidity_IsbL-0875_RLatLon0.09_PT065H.grib2 2026-05-03 15:12 829K
20260503T12Z_MSC_RDPS_SpecificHumidity_IsbL-0900_RLatLon0.09_PT065H.grib2 2026-05-03 15:12 839K
20260503T12Z_MSC_RDPS_SpecificHumidity_IsbL-0925_RLatLon0.09_PT065H.grib2 2026-05-03 15:12 840K
20260503T12Z_MSC_RDPS_SpecificHumidity_IsbL-0950_RLatLon0.09_PT065H.grib2 2026-05-03 15:12 698K
20260503T12Z_MSC_RDPS_SpecificHumidity_IsbL-0970_RLatLon0.09_PT065H.grib2 2026-05-03 15:12 689K
20260503T12Z_MSC_RDPS_SpecificHumidity_IsbL-0985_RLatLon0.09_PT065H.grib2 2026-05-03 15:12 681K
20260503T12Z_MSC_RDPS_SpecificHumidity_IsbL-1000_RLatLon0.09_PT065H.grib2 2026-05-03 15:12 674K
20260503T12Z_MSC_RDPS_SpecificHumidity_IsbL-1015_RLatLon0.09_PT065H.grib2 2026-05-03 15:12 664K
20260503T12Z_MSC_RDPS_SpecificHumidity_Sfc_RLatLon0.09_PT065H.grib2 2026-05-03 15:12 307K
20260503T12Z_MSC_RDPS_StormRelativeHelicity_EtaL-10000_RLatLon0.09_PT065H.grib2 2026-05-03 15:12 1.1M
20260503T12Z_MSC_RDPS_StormSeverityIndex_EtaL-10000_RLatLon0.09_PT065H.grib2 2026-05-03 15:12 1.1M
20260503T12Z_MSC_RDPS_Thickness_IsbL-0850to0700_RLatLon0.09_PT065H.grib2 2026-05-03 15:12 178K
20260503T12Z_MSC_RDPS_Thickness_IsbL-1000to0500_RLatLon0.09_PT065H.grib2 2026-05-03 15:12 197K
20260503T12Z_MSC_RDPS_Thickness_IsbL-1000to0850_RLatLon0.09_PT065H.grib2 2026-05-03 15:12 182K
20260503T12Z_MSC_RDPS_TotalCloudCover_Sfc_RLatLon0.09_PT065H.grib2 2026-05-03 15:12 659K
20260503T12Z_MSC_RDPS_TotalTotalsIndex_Sfc_RLatLon0.09_PT065H.grib2 2026-05-03 15:12 2.4M
20260503T12Z_MSC_RDPS_UVIndex-ClearSky_Sfc_RLatLon0.09_PT065H.grib2 2026-05-03 15:12 106K
20260503T12Z_MSC_RDPS_UVIndex_Sfc_RLatLon0.09_PT065H.grib2 2026-05-03 15:12 183K
20260503T12Z_MSC_RDPS_UpwardLongwaveRadiationFlux_NTAtm_RLatLon0.09_PT065H.grib2 2026-05-03 15:12 482K
20260503T12Z_MSC_RDPS_UpwardShortwaveRadiationFlux_NTAtm_RLatLon0.09_PT065H.grib2 2026-05-03 15:12 151K
20260503T12Z_MSC_RDPS_VerticalVelocity_IsbL-0250_RLatLon0.09_PT065H.grib2 2026-05-03 15:12 578K
20260503T12Z_MSC_RDPS_VerticalVelocity_IsbL-0500_RLatLon0.09_PT065H.grib2 2026-05-03 15:12 550K
20260503T12Z_MSC_RDPS_VerticalVelocity_IsbL-0700_RLatLon0.09_PT065H.grib2 2026-05-03 15:12 596K
20260503T12Z_MSC_RDPS_VerticalVelocity_IsbL-0850_RLatLon0.09_PT065H.grib2 2026-05-03 15:12 697K
20260503T12Z_MSC_RDPS_VerticalWindShear_EtaL-6500_RLatLon0.09_PT065H.grib2 2026-05-03 15:12 1.2M
20260503T12Z_MSC_RDPS_WindChill_Sfc_RLatLon0.09_PT065H.grib2 2026-05-03 15:12 1.1M
20260503T12Z_MSC_RDPS_WindDir_AGL-10m_RLatLon0.09_PT065H.grib2 2026-05-03 15:12 938K
20260503T12Z_MSC_RDPS_WindDir_AGL-120m_RLatLon0.09_PT065H.grib2 2026-05-03 15:12 575K
20260503T12Z_MSC_RDPS_WindDir_AGL-40m_RLatLon0.09_PT065H.grib2 2026-05-03 15:12 608K
20260503T12Z_MSC_RDPS_WindDir_AGL-80m_RLatLon0.09_PT065H.grib2 2026-05-03 15:12 587K
20260503T12Z_MSC_RDPS_WindDir_IsbL-0001_RLatLon0.09_PT065H.grib2 2026-05-03 15:12 308K
20260503T12Z_MSC_RDPS_WindDir_IsbL-0005_RLatLon0.09_PT065H.grib2 2026-05-03 15:12 370K
20260503T12Z_MSC_RDPS_WindDir_IsbL-0010_RLatLon0.09_PT065H.grib2 2026-05-03 15:12 399K
20260503T12Z_MSC_RDPS_WindDir_IsbL-0020_RLatLon0.09_PT065H.grib2 2026-05-03 15:12 408K
20260503T12Z_MSC_RDPS_WindDir_IsbL-0030_RLatLon0.09_PT065H.grib2 2026-05-03 15:12 415K
20260503T12Z_MSC_RDPS_WindDir_IsbL-0050_RLatLon0.09_PT065H.grib2 2026-05-03 15:12 423K
20260503T12Z_MSC_RDPS_WindDir_IsbL-0100_RLatLon0.09_PT065H.grib2 2026-05-03 15:12 418K
20260503T12Z_MSC_RDPS_WindDir_IsbL-0150_RLatLon0.09_PT065H.grib2 2026-05-03 15:12 415K
20260503T12Z_MSC_RDPS_WindDir_IsbL-0175_RLatLon0.09_PT065H.grib2 2026-05-03 15:12 437K
20260503T12Z_MSC_RDPS_WindDir_IsbL-0200_RLatLon0.09_PT065H.grib2 2026-05-03 15:12 450K
20260503T12Z_MSC_RDPS_WindDir_IsbL-0225_RLatLon0.09_PT065H.grib2 2026-05-03 15:12 455K
20260503T12Z_MSC_RDPS_WindDir_IsbL-0250_RLatLon0.09_PT065H.grib2 2026-05-03 15:12 456K
20260503T12Z_MSC_RDPS_WindDir_IsbL-0275_RLatLon0.09_PT065H.grib2 2026-05-03 15:12 475K
20260503T12Z_MSC_RDPS_WindDir_IsbL-0300_RLatLon0.09_PT065H.grib2 2026-05-03 15:12 471K
20260503T12Z_MSC_RDPS_WindDir_IsbL-0350_RLatLon0.09_PT065H.grib2 2026-05-03 15:12 502K
20260503T12Z_MSC_RDPS_WindDir_IsbL-0400_RLatLon0.09_PT065H.grib2 2026-05-03 15:12 521K
20260503T12Z_MSC_RDPS_WindDir_IsbL-0450_RLatLon0.09_PT065H.grib2 2026-05-03 15:12 539K
20260503T12Z_MSC_RDPS_WindDir_IsbL-0500_RLatLon0.09_PT065H.grib2 2026-05-03 15:12 543K
20260503T12Z_MSC_RDPS_WindDir_IsbL-0550_RLatLon0.09_PT065H.grib2 2026-05-03 15:12 553K
20260503T12Z_MSC_RDPS_WindDir_IsbL-0600_RLatLon0.09_PT065H.grib2 2026-05-03 15:12 583K
20260503T12Z_MSC_RDPS_WindDir_IsbL-0650_RLatLon0.09_PT065H.grib2 2026-05-03 15:12 623K
20260503T12Z_MSC_RDPS_WindDir_IsbL-0700_RLatLon0.09_PT065H.grib2 2026-05-03 15:12 669K
20260503T12Z_MSC_RDPS_WindDir_IsbL-0750_RLatLon0.09_PT065H.grib2 2026-05-03 15:12 712K
20260503T12Z_MSC_RDPS_WindDir_IsbL-0800_RLatLon0.09_PT065H.grib2 2026-05-03 15:12 770K
20260503T12Z_MSC_RDPS_WindDir_IsbL-0850_RLatLon0.09_PT065H.grib2 2026-05-03 15:12 852K
20260503T12Z_MSC_RDPS_WindDir_IsbL-0875_RLatLon0.09_PT065H.grib2 2026-05-03 15:12 881K
20260503T12Z_MSC_RDPS_WindDir_IsbL-0900_RLatLon0.09_PT065H.grib2 2026-05-03 15:12 892K
20260503T12Z_MSC_RDPS_WindDir_IsbL-0925_RLatLon0.09_PT065H.grib2 2026-05-03 15:12 896K
20260503T12Z_MSC_RDPS_WindDir_IsbL-0950_RLatLon0.09_PT065H.grib2 2026-05-03 15:12 891K
20260503T12Z_MSC_RDPS_WindDir_IsbL-0970_RLatLon0.09_PT065H.grib2 2026-05-03 15:12 895K
20260503T12Z_MSC_RDPS_WindDir_IsbL-0985_RLatLon0.09_PT065H.grib2 2026-05-03 15:12 899K
20260503T12Z_MSC_RDPS_WindDir_IsbL-1000_RLatLon0.09_PT065H.grib2 2026-05-03 15:12 912K
20260503T12Z_MSC_RDPS_WindDir_IsbL-1015_RLatLon0.09_PT065H.grib2 2026-05-03 15:12 928K
20260503T12Z_MSC_RDPS_WindGust-Max_AGL-10m_RLatLon0.09_PT065H.grib2 2026-05-03 15:12 1.0M
20260503T12Z_MSC_RDPS_WindGust-Min_AGL-10m_RLatLon0.09_PT065H.grib2 2026-05-03 15:12 1.0M
20260503T12Z_MSC_RDPS_WindGust_AGL-10m_RLatLon0.09_PT065H.grib2 2026-05-03 15:12 1.0M
20260503T12Z_MSC_RDPS_WindSpeed_AGL-10m_RLatLon0.09_PT065H.grib2 2026-05-03 15:12 839K
20260503T12Z_MSC_RDPS_WindSpeed_AGL-120m_RLatLon0.09_PT065H.grib2 2026-05-03 15:12 537K
20260503T12Z_MSC_RDPS_WindSpeed_AGL-40m_RLatLon0.09_PT065H.grib2 2026-05-03 15:12 542K
20260503T12Z_MSC_RDPS_WindSpeed_AGL-80m_RLatLon0.09_PT065H.grib2 2026-05-03 15:12 539K
20260503T12Z_MSC_RDPS_WindSpeed_IsbL-0001_RLatLon0.09_PT065H.grib2 2026-05-03 15:12 333K
20260503T12Z_MSC_RDPS_WindSpeed_IsbL-0005_RLatLon0.09_PT065H.grib2 2026-05-03 15:12 384K
20260503T12Z_MSC_RDPS_WindSpeed_IsbL-0010_RLatLon0.09_PT065H.grib2 2026-05-03 15:12 366K
20260503T12Z_MSC_RDPS_WindSpeed_IsbL-0020_RLatLon0.09_PT065H.grib2 2026-05-03 15:12 417K
20260503T12Z_MSC_RDPS_WindSpeed_IsbL-0030_RLatLon0.09_PT065H.grib2 2026-05-03 15:12 318K
20260503T12Z_MSC_RDPS_WindSpeed_IsbL-0050_RLatLon0.09_PT065H.grib2 2026-05-03 15:12 350K
20260503T12Z_MSC_RDPS_WindSpeed_IsbL-0100_RLatLon0.09_PT065H.grib2 2026-05-03 15:12 474K
20260503T12Z_MSC_RDPS_WindSpeed_IsbL-0150_RLatLon0.09_PT065H.grib2 2026-05-03 15:12 378K
20260503T12Z_MSC_RDPS_WindSpeed_IsbL-0175_RLatLon0.09_PT065H.grib2 2026-05-03 15:12 426K
20260503T12Z_MSC_RDPS_WindSpeed_IsbL-0200_RLatLon0.09_PT065H.grib2 2026-05-03 15:12 442K
20260503T12Z_MSC_RDPS_WindSpeed_IsbL-0225_RLatLon0.09_PT065H.grib2 2026-05-03 15:12 444K
20260503T12Z_MSC_RDPS_WindSpeed_IsbL-0250_RLatLon0.09_PT065H.grib2 2026-05-03 15:12 447K
20260503T12Z_MSC_RDPS_WindSpeed_IsbL-0275_RLatLon0.09_PT065H.grib2 2026-05-03 15:12 465K
20260503T12Z_MSC_RDPS_WindSpeed_IsbL-0300_RLatLon0.09_PT065H.grib2 2026-05-03 15:12 465K
20260503T12Z_MSC_RDPS_WindSpeed_IsbL-0350_RLatLon0.09_PT065H.grib2 2026-05-03 15:12 479K
20260503T12Z_MSC_RDPS_WindSpeed_IsbL-0400_RLatLon0.09_PT065H.grib2 2026-05-03 15:12 482K
20260503T12Z_MSC_RDPS_WindSpeed_IsbL-0450_RLatLon0.09_PT065H.grib2 2026-05-03 15:12 464K
20260503T12Z_MSC_RDPS_WindSpeed_IsbL-0500_RLatLon0.09_PT065H.grib2 2026-05-03 15:12 464K
20260503T12Z_MSC_RDPS_WindSpeed_IsbL-0550_RLatLon0.09_PT065H.grib2 2026-05-03 15:12 463K
20260503T12Z_MSC_RDPS_WindSpeed_IsbL-0600_RLatLon0.09_PT065H.grib2 2026-05-03 15:12 589K
20260503T12Z_MSC_RDPS_WindSpeed_IsbL-0650_RLatLon0.09_PT065H.grib2 2026-05-03 15:12 651K
20260503T12Z_MSC_RDPS_WindSpeed_IsbL-0700_RLatLon0.09_PT065H.grib2 2026-05-03 15:12 673K
20260503T12Z_MSC_RDPS_WindSpeed_IsbL-0750_RLatLon0.09_PT065H.grib2 2026-05-03 15:12 702K
20260503T12Z_MSC_RDPS_WindSpeed_IsbL-0800_RLatLon0.09_PT065H.grib2 2026-05-03 15:12 749K
20260503T12Z_MSC_RDPS_WindSpeed_IsbL-0850_RLatLon0.09_PT065H.grib2 2026-05-03 15:12 819K
20260503T12Z_MSC_RDPS_WindSpeed_IsbL-0875_RLatLon0.09_PT065H.grib2 2026-05-03 15:12 845K
20260503T12Z_MSC_RDPS_WindSpeed_IsbL-0900_RLatLon0.09_PT065H.grib2 2026-05-03 15:12 861K
20260503T12Z_MSC_RDPS_WindSpeed_IsbL-0925_RLatLon0.09_PT065H.grib2 2026-05-03 15:12 874K
20260503T12Z_MSC_RDPS_WindSpeed_IsbL-0950_RLatLon0.09_PT065H.grib2 2026-05-03 15:12 874K
20260503T12Z_MSC_RDPS_WindSpeed_IsbL-0970_RLatLon0.09_PT065H.grib2 2026-05-03 15:12 872K
20260503T12Z_MSC_RDPS_WindSpeed_IsbL-0985_RLatLon0.09_PT065H.grib2 2026-05-03 15:12 862K
20260503T12Z_MSC_RDPS_WindSpeed_IsbL-1000_RLatLon0.09_PT065H.grib2 2026-05-03 15:12 849K
20260503T12Z_MSC_RDPS_WindSpeed_IsbL-1015_RLatLon0.09_PT065H.grib2 2026-05-03 15:12 840K
20260503T12Z_MSC_RDPS_WindU_AGL-10m_RLatLon0.09_PT065H.grib2 2026-05-03 15:12 430K
20260503T12Z_MSC_RDPS_WindU_AGL-120m_RLatLon0.09_PT065H.grib2 2026-05-03 15:12 532K
20260503T12Z_MSC_RDPS_WindU_AGL-40m_RLatLon0.09_PT065H.grib2 2026-05-03 15:12 536K
20260503T12Z_MSC_RDPS_WindU_AGL-80m_RLatLon0.09_PT065H.grib2 2026-05-03 15:12 534K
20260503T12Z_MSC_RDPS_WindU_IsbL-0001_RLatLon0.09_PT065H.grib2 2026-05-03 15:12 241K
20260503T12Z_MSC_RDPS_WindU_IsbL-0005_RLatLon0.09_PT065H.grib2 2026-05-03 15:12 283K
20260503T12Z_MSC_RDPS_WindU_IsbL-0010_RLatLon0.09_PT065H.grib2 2026-05-03 15:12 295K
20260503T12Z_MSC_RDPS_WindU_IsbL-0020_RLatLon0.09_PT065H.grib2 2026-05-03 15:12 312K
20260503T12Z_MSC_RDPS_WindU_IsbL-0030_RLatLon0.09_PT065H.grib2 2026-05-03 15:12 349K
20260503T12Z_MSC_RDPS_WindU_IsbL-0050_RLatLon0.09_PT065H.grib2 2026-05-03 15:12 379K
20260503T12Z_MSC_RDPS_WindU_IsbL-0100_RLatLon0.09_PT065H.grib2 2026-05-03 15:12 335K
20260503T12Z_MSC_RDPS_WindU_IsbL-0150_RLatLon0.09_PT065H.grib2 2026-05-03 15:12 396K
20260503T12Z_MSC_RDPS_WindU_IsbL-0175_RLatLon0.09_PT065H.grib2 2026-05-03 15:12 325K
20260503T12Z_MSC_RDPS_WindU_IsbL-0200_RLatLon0.09_PT065H.grib2 2026-05-03 15:12 337K
20260503T12Z_MSC_RDPS_WindU_IsbL-0225_RLatLon0.09_PT065H.grib2 2026-05-03 15:12 338K
20260503T12Z_MSC_RDPS_WindU_IsbL-0250_RLatLon0.09_PT065H.grib2 2026-05-03 15:12 338K
20260503T12Z_MSC_RDPS_WindU_IsbL-0275_RLatLon0.09_PT065H.grib2 2026-05-03 15:12 352K
20260503T12Z_MSC_RDPS_WindU_IsbL-0300_RLatLon0.09_PT065H.grib2 2026-05-03 15:12 351K
20260503T12Z_MSC_RDPS_WindU_IsbL-0350_RLatLon0.09_PT065H.grib2 2026-05-03 15:12 363K
20260503T12Z_MSC_RDPS_WindU_IsbL-0400_RLatLon0.09_PT065H.grib2 2026-05-03 15:12 469K
20260503T12Z_MSC_RDPS_WindU_IsbL-0450_RLatLon0.09_PT065H.grib2 2026-05-03 15:12 469K
20260503T12Z_MSC_RDPS_WindU_IsbL-0500_RLatLon0.09_PT065H.grib2 2026-05-03 15:12 470K
20260503T12Z_MSC_RDPS_WindU_IsbL-0550_RLatLon0.09_PT065H.grib2 2026-05-03 15:12 470K
20260503T12Z_MSC_RDPS_WindU_IsbL-0600_RLatLon0.09_PT065H.grib2 2026-05-03 15:12 478K
20260503T12Z_MSC_RDPS_WindU_IsbL-0650_RLatLon0.09_PT065H.grib2 2026-05-03 15:12 479K
20260503T12Z_MSC_RDPS_WindU_IsbL-0700_RLatLon0.09_PT065H.grib2 2026-05-03 15:12 500K
20260503T12Z_MSC_RDPS_WindU_IsbL-0750_RLatLon0.09_PT065H.grib2 2026-05-03 15:12 524K
20260503T12Z_MSC_RDPS_WindU_IsbL-0800_RLatLon0.09_PT065H.grib2 2026-05-03 15:12 565K
20260503T12Z_MSC_RDPS_WindU_IsbL-0850_RLatLon0.09_PT065H.grib2 2026-05-03 15:12 629K
20260503T12Z_MSC_RDPS_WindU_IsbL-0875_RLatLon0.09_PT065H.grib2 2026-05-03 15:12 651K
20260503T12Z_MSC_RDPS_WindU_IsbL-0900_RLatLon0.09_PT065H.grib2 2026-05-03 15:12 662K
20260503T12Z_MSC_RDPS_WindU_IsbL-0925_RLatLon0.09_PT065H.grib2 2026-05-03 15:12 669K
20260503T12Z_MSC_RDPS_WindU_IsbL-0950_RLatLon0.09_PT065H.grib2 2026-05-03 15:12 664K
20260503T12Z_MSC_RDPS_WindU_IsbL-0970_RLatLon0.09_PT065H.grib2 2026-05-03 15:12 799K
20260503T12Z_MSC_RDPS_WindU_IsbL-0985_RLatLon0.09_PT065H.grib2 2026-05-03 15:12 789K
20260503T12Z_MSC_RDPS_WindU_IsbL-1000_RLatLon0.09_PT065H.grib2 2026-05-03 15:12 782K
20260503T12Z_MSC_RDPS_WindU_IsbL-1015_RLatLon0.09_PT065H.grib2 2026-05-03 15:12 822K
20260503T12Z_MSC_RDPS_WindV_AGL-10m_RLatLon0.09_PT065H.grib2 2026-05-03 15:12 432K
20260503T12Z_MSC_RDPS_WindV_AGL-120m_RLatLon0.09_PT065H.grib2 2026-05-03 15:12 417K
20260503T12Z_MSC_RDPS_WindV_AGL-40m_RLatLon0.09_PT065H.grib2 2026-05-03 15:12 537K
20260503T12Z_MSC_RDPS_WindV_AGL-80m_RLatLon0.09_PT065H.grib2 2026-05-03 15:12 418K
20260503T12Z_MSC_RDPS_WindV_IsbL-0001_RLatLon0.09_PT065H.grib2 2026-05-03 15:12 247K
20260503T12Z_MSC_RDPS_WindV_IsbL-0005_RLatLon0.09_PT065H.grib2 2026-05-03 15:12 287K
20260503T12Z_MSC_RDPS_WindV_IsbL-0010_RLatLon0.09_PT065H.grib2 2026-05-03 15:12 298K
20260503T12Z_MSC_RDPS_WindV_IsbL-0020_RLatLon0.09_PT065H.grib2 2026-05-03 15:12 315K
20260503T12Z_MSC_RDPS_WindV_IsbL-0030_RLatLon0.09_PT065H.grib2 2026-05-03 15:12 313K
20260503T12Z_MSC_RDPS_WindV_IsbL-0050_RLatLon0.09_PT065H.grib2 2026-05-03 15:12 344K
20260503T12Z_MSC_RDPS_WindV_IsbL-0100_RLatLon0.09_PT065H.grib2 2026-05-03 15:12 426K
20260503T12Z_MSC_RDPS_WindV_IsbL-0150_RLatLon0.09_PT065H.grib2 2026-05-03 15:12 394K
20260503T12Z_MSC_RDPS_WindV_IsbL-0175_RLatLon0.09_PT065H.grib2 2026-05-03 15:12 322K
20260503T12Z_MSC_RDPS_WindV_IsbL-0200_RLatLon0.09_PT065H.grib2 2026-05-03 15:12 335K
20260503T12Z_MSC_RDPS_WindV_IsbL-0225_RLatLon0.09_PT065H.grib2 2026-05-03 15:12 338K
20260503T12Z_MSC_RDPS_WindV_IsbL-0250_RLatLon0.09_PT065H.grib2 2026-05-03 15:12 339K
20260503T12Z_MSC_RDPS_WindV_IsbL-0275_RLatLon0.09_PT065H.grib2 2026-05-03 15:12 355K
20260503T12Z_MSC_RDPS_WindV_IsbL-0300_RLatLon0.09_PT065H.grib2 2026-05-03 15:12 378K
20260503T12Z_MSC_RDPS_WindV_IsbL-0350_RLatLon0.09_PT065H.grib2 2026-05-03 15:12 362K
20260503T12Z_MSC_RDPS_WindV_IsbL-0400_RLatLon0.09_PT065H.grib2 2026-05-03 15:12 365K
20260503T12Z_MSC_RDPS_WindV_IsbL-0450_RLatLon0.09_PT065H.grib2 2026-05-03 15:12 365K
20260503T12Z_MSC_RDPS_WindV_IsbL-0500_RLatLon0.09_PT065H.grib2 2026-05-03 15:12 469K
20260503T12Z_MSC_RDPS_WindV_IsbL-0550_RLatLon0.09_PT065H.grib2 2026-05-03 15:12 468K
20260503T12Z_MSC_RDPS_WindV_IsbL-0600_RLatLon0.09_PT065H.grib2 2026-05-03 15:12 475K
20260503T12Z_MSC_RDPS_WindV_IsbL-0650_RLatLon0.09_PT065H.grib2 2026-05-03 15:12 492K
20260503T12Z_MSC_RDPS_WindV_IsbL-0700_RLatLon0.09_PT065H.grib2 2026-05-03 15:12 510K
20260503T12Z_MSC_RDPS_WindV_IsbL-0750_RLatLon0.09_PT065H.grib2 2026-05-03 15:12 533K
20260503T12Z_MSC_RDPS_WindV_IsbL-0800_RLatLon0.09_PT065H.grib2 2026-05-03 15:12 561K
20260503T12Z_MSC_RDPS_WindV_IsbL-0850_RLatLon0.09_PT065H.grib2 2026-05-03 15:12 622K
20260503T12Z_MSC_RDPS_WindV_IsbL-0875_RLatLon0.09_PT065H.grib2 2026-05-03 15:12 645K
20260503T12Z_MSC_RDPS_WindV_IsbL-0900_RLatLon0.09_PT065H.grib2 2026-05-03 15:12 658K
20260503T12Z_MSC_RDPS_WindV_IsbL-0925_RLatLon0.09_PT065H.grib2 2026-05-03 15:12 673K
20260503T12Z_MSC_RDPS_WindV_IsbL-0950_RLatLon0.09_PT065H.grib2 2026-05-03 15:12 669K
20260503T12Z_MSC_RDPS_WindV_IsbL-0970_RLatLon0.09_PT065H.grib2 2026-05-03 15:12 660K
20260503T12Z_MSC_RDPS_WindV_IsbL-0985_RLatLon0.09_PT065H.grib2 2026-05-03 15:12 653K
20260503T12Z_MSC_RDPS_WindV_IsbL-1000_RLatLon0.09_PT065H.grib2 2026-05-03 15:12 647K
20260503T12Z_MSC_RDPS_WindV_IsbL-1015_RLatLon0.09_PT065H.grib2 2026-05-03 15:12 778K